WESTFORD NEEDLES, 2431

Orbit data source: Space-Track

WESTFORD NEEDLES, 2431 is space debris in LEO originally from a launch on Thu, 09 May 1963 UTC launched from the Air Force Western Test Range (AFWTR). Debris objects in space refer to the collection of defunct objects orbiting the Earth. Examples of debris include non-operational satellites, rocket bodies, and fragments generated from explosions, collisions, or faulty payload assembly.

Loading next visibility...
WESTFORD NEEDLES details
Identifier
2431, 1963-014AC
Orbit
LEO
Last TLE update1 day ago
Origin
Flag of USUSAF SSD (US)
ManufacturerUnknown
MissionSpacecraft
Bus & MotorUnknown
MassUnknown
Launch date (UTC)
1963-05-09 (62 years ago)
Launch vehicleUnknown
Launch site
Air Force Western Test Range (AFWTR)
Object type
Payload
Rocket body
Debris
Shape & HBRUnknown
Radar Cross SectionMedium (>0.1 m² and <1 m²)

Expand to show TLE details & history

TLE from 1 day ago
0 WESTFORD NEEDLES
1 02431U 63014AC  24355.09524729 -.00000560  00000-0 -23093+0 0  9990
2 02431  87.4740 241.3724 0446081 167.9026 193.2964  8.68666971322467
Epoch: 2024-12-20T02:17Z
Definitive object data (Epoch: 2024-12-20T02:17:09.365Z)
Latitude-0.00001°
Longitude117.9177°
Altitude4,055.211 km
Speed6.046 km/s
True Right ascension16h 05m 29s
True Declination0° 00' 00"
Sunlit
Object was in daylight at TLE epoch
Visualization TLE readout
Latitude59.21464°
Longitude122.01949°
Altitude3,741.579 km
Speed6.245 km/s
Apparent Right ascension19h 32m 09s
Apparent Declination35° 03' 14"
Sunlit
Object is in daylight
Visualization observer readout
Local Sidereal Time10:57:47
Azimuth39.791° NE
Elevation-1.325°
Doppler factor1
Orbital elements
Apogee altitude4,061.639 km
Perigee altitude3,170.016 km
Semi-major axis9,993.965 km
Eccentricity0.0446081
Inclination87.474°
RAAN241.3724°
Arg. of periapsis167.9026°
True anomaly192.18146°
Mean anomaly193.2964°
Eccentric anomaly192.73307°
Mean motion2.17238 °/min
BSTAR-0.23093
Orbital period165.72 mins
Loading maneuver chart data...

WESTFORD NEEDLES Visibility forecast

Observer location: undefined°, undefined

Span
Click to sort rows by Start time (UTC) header in descending order
Start Az.
Max El. time (UTC)
Max El. Az.
Max El.
End time (UTC)
End Az.
27 mins2024-12-21 14:22:04.425Z109.325° ESE2024-12-21 14:36:04.425Z62.904° ENE24.433°2024-12-21 14:49:04.425Z16.51° NNE
38 mins2024-12-21 16:59:04.425Z178.665° S2024-12-21 17:18:04.425Z238.998° WSW44.909°2024-12-21 17:37:04.425Z1.346° NNE
27 mins2024-12-21 19:55:04.425Z255.076° W2024-12-21 20:08:04.425Z298.656° NW21.028°2024-12-21 20:22:04.425Z347.845° N
24 mins2024-12-22 02:06:04.425Z13.943° NNE2024-12-22 02:18:04.425Z62.514° ENE22.805°2024-12-22 02:30:04.425Z112.889° SE
32 mins2024-12-22 04:51:04.425Z356.776° N2024-12-22 05:07:04.425Z266.297° W44.664°2024-12-22 05:23:04.425Z189.353° SSW
17 mins2024-12-22 07:40:04.425Z335.507° NNW2024-12-22 07:48:04.425Z304.823° NW17.133°2024-12-22 07:57:04.425Z269.355° W
|